When you browse on this site, cookies collect data to enhance your experience and personalize the content and advertising you see.
Visit our Privacy Policy to learn more. By continuing to use the site, you agree to this use of cookies and data.
  • In Hungary
  • List of Countries
  • For 7 days
  • Water Temperature
  • Weather Map
  • News
  • Weather Widgets
  • user-avatar
    Login

    Hourly Weather Malinovka

    Today, 21 October, Monday

    Time Temperature Precipitation Wind Pressure Humidity
    00:00 +5°C° 0 mm 3 mps 747 mmHg 97%
    01:00 +7°C° 0.3 mm 3 mps 747 mmHg 97%
    02:00 +7°C° 0.3 mm 3 mps 746 mmHg 98%
    03:00 +8°C° 0 mm 3 mps 747 mmHg 97%
    04:00 +8°C° 0.6 mm 3 mps 747 mmHg 98%
    05:00 +8°C° 0.6 mm 3 mps 746 mmHg 98%
    06:00 +9°C° 0.6 mm 3 mps 746 mmHg 98%
    07:00 +9°C° 0 mm 3 mps 746 mmHg 98%
    08:00 +9°C° 0 mm 3 mps 746 mmHg 97%
    09:00 +9°C° 0 mm 3 mps 746 mmHg 97%
    10:00 +10°C° 0 mm 4 mps 746 mmHg 94%
    11:00 +11°C° 0 mm 4 mps 745 mmHg 91%
    12:00 +10°C° 0 mm 5 mps 745 mmHg 88%
    13:00 +12°C° 0 mm 5 mps 744 mmHg 87%
    14:00 +12°C° 0 mm 5 mps 744 mmHg 85%
    15:00 +11°C° 0 mm 6 mps 743 mmHg 84%
    16:00 +11°C° 0 mm 6 mps 742 mmHg 85%
    17:00 +11°C° 0 mm 6 mps 742 mmHg 86%
    18:00 +10°C° 0 mm 7 mps 741 mmHg 86%
    19:00 +10°C° 0.3 mm 7 mps 740 mmHg 86%
    20:00 +11°C° 0.3 mm 7 mps 740 mmHg 86%
    21:00 +11°C° 0.3 mm 8 mps 739 mmHg 86%
    22:00 +10°C° 1.7 mm 7 mps 739 mmHg 86%
    23:00 +9°C° 1.7 mm 5 mps 739 mmHg 86%

    Tomorrow, 22 October, Tuesday

    Time Temperature Precipitation Wind Pressure Humidity
    00:00 +10°C° 1.7 mm 4 mps 739 mmHg 86%
    01:00 +8°C° 0 mm 4 mps 739 mmHg 87%
    02:00 +7°C° 0 mm 4 mps 740 mmHg 88%
    03:00 +6°C° 0 mm 4 mps 741 mmHg 90%
    04:00 +5°C° 0 mm 4 mps 741 mmHg 88%
    05:00 +5°C° 0 mm 4 mps 741 mmHg 86%
    06:00 +4°C° 0 mm 4 mps 742 mmHg 84%
    07:00 +4°C° 0 mm 4 mps 742 mmHg 81%
    08:00 +4°C° 0 mm 4 mps 743 mmHg 78%
    09:00 +5°C° 0 mm 4 mps 743 mmHg 75%
    10:00 +5°C° 0 mm 4 mps 743 mmHg 73%
    11:00 +5°C° 0 mm 4 mps 744 mmHg 72%
    12:00 +5°C° 0 mm 4 mps 744 mmHg 70%
    13:00 +5°C° 0 mm 4 mps 744 mmHg 71%
    14:00 +4°C° 0 mm 4 mps 744 mmHg 72%
    15:00 +4°C° 0 mm 4 mps 745 mmHg 74%
    16:00 +3°C° 0 mm 3 mps 745 mmHg 76%
    17:00 +3°C° 0 mm 3 mps 745 mmHg 79%
    18:00 +2°C° 0 mm 3 mps 745 mmHg 82%
    19:00 +3°C° 0 mm 2 mps 745 mmHg 83%
    20:00 +2°C° 0 mm 2 mps 745 mmHg 84%
    21:00 +3°C° 0 mm 1 mps 745 mmHg 85%
    22:00 +3°C° 0 mm 1 mps 745 mmHg 86%
    23:00 +3°C° 0 mm 1 mps 745 mmHg 87%

    Day after tomorrow, 23 October, Wednesday

    Time Temperature Precipitation Wind Pressure Humidity
    00:00 +2°C° 0 mm 2 mps 745 mmHg 88%
    01:00 +1°C° 0 mm 2 mps 745 mmHg 89%
    02:00 +1°C° 0 mm 2 mps 744 mmHg 91%
    03:00 +1°C° 0 mm 2 mps 744 mmHg 92%
    04:00 +1°C° 0 mm 2 mps 744 mmHg 91%
    05:00 +1°C° 0 mm 3 mps 743 mmHg 90%
    06:00 +2°C° 0 mm 3 mps 743 mmHg 89%
    07:00 +1°C° 0 mm 4 mps 742 mmHg 88%
    08:00 +3°C° 0 mm 4 mps 742 mmHg 87%
    09:00 +3°C° 0 mm 5 mps 741 mmHg 86%
    10:00 +5°C° 0 mm 5 mps 741 mmHg 85%
    11:00 +6°C° 0 mm 5 mps 740 mmHg 85%
    12:00 +6°C° 0 mm 5 mps 739 mmHg 84%
    13:00 +7°C° 0 mm 5 mps 739 mmHg 86%
    14:00 +7°C° 0 mm 5 mps 739 mmHg 89%
    15:00 +7°C° 0 mm 5 mps 739 mmHg 91%
    16:00 +7°C° 0 mm 4 mps 739 mmHg 91%
    17:00 +7°C° 0 mm 4 mps 739 mmHg 92%
    18:00 +7°C° 0 mm 4 mps 739 mmHg 92%
    19:00 +7°C° 0 mm 4 mps 739 mmHg 90%
    20:00 +7°C° 0 mm 4 mps 739 mmHg 88%
    21:00 +6°C° 0 mm 4 mps 739 mmHg 86%
    22:00 +6°C° 0 mm 4 mps 739 mmHg 87%
    23:00 +6°C° 0 mm 4 mps 740 mmHg 89%

    24 October, Thursday

    Time Temperature Precipitation Wind Pressure Humidity
    00:00 +6°C° 0 mm 4 mps 740 mmHg 90%
    01:00 +7°C° 0 mm 3 mps 740 mmHg 90%
    02:00 +7°C° 0 mm 3 mps 741 mmHg 90%
    03:00 +7°C° 0 mm 3 mps 741 mmHg 89%
    04:00 +7°C° 0 mm 3 mps 742 mmHg 91%
    05:00 +7°C° 0 mm 2 mps 742 mmHg 92%
    06:00 +7°C° 0 mm 2 mps 742 mmHg 93%
    07:00 +7°C° 0 mm 2 mps 742 mmHg 93%
    08:00 +7°C° 0 mm 2 mps 743 mmHg 93%
    09:00 +7°C° 0 mm 2 mps 743 mmHg 93%
    10:00 +7°C° 0 mm 2 mps 743 mmHg 92%
    11:00 +7°C° 0 mm 2 mps 744 mmHg 92%
    12:00 +8°C° 0 mm 2 mps 744 mmHg 91%
    13:00 +8°C° 0 mm 2 mps 744 mmHg 91%
    14:00 +8°C° 0 mm 2 mps 744 mmHg 90%
    15:00 +8°C° 0 mm 2 mps 744 mmHg 89%
    16:00 +8°C° 0 mm 2 mps 744 mmHg 92%
    17:00 +7°C° 0 mm 2 mps 744 mmHg 94%
    18:00 +6°C° 0 mm 2 mps 744 mmHg 96%
    19:00 +6°C° 0 mm 2 mps 744 mmHg 96%
    20:00 +7°C° 0 mm 2 mps 745 mmHg 96%
    21:00 +7°C° 0 mm 2 mps 745 mmHg 96%
    22:00 +6°C° 0 mm 2 mps 745 mmHg 96%
    23:00 +6°C° 0 mm 2 mps 744 mmHg 96%

    25 October, Friday

    Time Temperature Precipitation Wind Pressure Humidity
    00:00 +6°C° 0 mm 2 mps 744 mmHg 96%
    01:00 +6°C° 0 mm 2 mps 744 mmHg 96%
    02:00 +6°C° 0 mm 2 mps 744 mmHg 97%
    03:00 +6°C° 0 mm 2 mps 744 mmHg 97%
    04:00 +5°C° 0 mm 2 mps 744 mmHg 97%
    05:00 +5°C° 0 mm 2 mps 744 mmHg 97%
    06:00 +4°C° 0 mm 2 mps 743 mmHg 97%
    07:00 +4°C° 0 mm 3 mps 743 mmHg 95%
    08:00 +4°C° 0 mm 3 mps 743 mmHg 93%
    09:00 +5°C° 0 mm 3 mps 743 mmHg 91%
    10:00 +7°C° 0 mm 3 mps 743 mmHg 90%
    11:00 +6°C° 0 mm 4 mps 743 mmHg 88%
    12:00 +7°C° 0 mm 4 mps 743 mmHg 87%
    13:00 +7°C° 0 mm 4 mps 744 mmHg 86%
    14:00 +7°C° 0 mm 4 mps 744 mmHg 85%
    15:00 +6°C° 0 mm 4 mps 744 mmHg 84%
    16:00 +7°C° 0 mm 3 mps 744 mmHg 86%
    17:00 +5°C° 0 mm 3 mps 744 mmHg 87%
    18:00 +5°C° 0 mm 2 mps 744 mmHg 89%
    19:00 +5°C° 0 mm 2 mps 744 mmHg 90%
    20:00 +5°C° 0 mm 2 mps 745 mmHg 92%
    21:00 +4°C° 0 mm 2 mps 745 mmHg 93%
    22:00 +4°C° 0 mm 2 mps 744 mmHg 92%
    23:00 +4°C° 0 mm 2 mps 744 mmHg 92%

    26 October, Saturday

    Time Temperature Precipitation Wind Pressure Humidity
    00:00 +4°C° 0 mm 2 mps 744 mmHg 91%
    01:00 +4°C° 0 mm 3 mps 744 mmHg 91%
    02:00 +4°C° 0 mm 3 mps 743 mmHg 91%
    03:00 +4°C° 0 mm 4 mps 743 mmHg 91%
    04:00 +4°C° 0 mm 4 mps 742 mmHg 91%
    05:00 +3°C° 0 mm 5 mps 742 mmHg 91%
    06:00 +3°C° 0 mm 5 mps 741 mmHg 91%
    07:00 +3°C° 0 mm 6 mps 740 mmHg 87%
    08:00 +4°C° 0 mm 6 mps 739 mmHg 84%
    09:00 +5°C° 0 mm 7 mps 739 mmHg 81%
    10:00 +5°C° 0 mm 7 mps 738 mmHg 81%
    11:00 +6°C° 0 mm 7 mps 738 mmHg 80%
    12:00 +6°C° 0 mm 7 mps 737 mmHg 80%
    13:00 +6°C° 0.1 mm 7 mps 737 mmHg 82%
    14:00 +6°C° 0.1 mm 7 mps 736 mmHg 83%
    15:00 +6°C° 0.1 mm 7 mps 736 mmHg 85%
    16:00 +8°C° 0 mm 6 mps 736 mmHg 84%
    17:00 +8°C° 0 mm 6 mps 736 mmHg 84%
    18:00 +8°C° 0 mm 6 mps 737 mmHg 83%
    19:00 +7°C° 0 mm 6 mps 737 mmHg 82%
    20:00 +6°C° 0 mm 5 mps 737 mmHg 81%
    21:00 +6°C° 0 mm 5 mps 737 mmHg 81%
    22:00 +5°C° 0 mm 5 mps 738 mmHg 81%
    23:00 +5°C° 0 mm 4 mps 738 mmHg 82%

    27 October, Sunday

    Time Temperature Precipitation Wind Pressure Humidity
    00:00 +4°C° 0 mm 4 mps 739 mmHg 83%
    01:00 +4°C° 0 mm 4 mps 739 mmHg 85%
    02:00 +3°C° 0 mm 4 mps 739 mmHg 86%
    03:00 +3°C° 0 mm 4 mps 740 mmHg 88%
    04:00 +3°C° 0 mm 3 mps 740 mmHg 89%
    05:00 +2°C° 0 mm 3 mps 740 mmHg 90%
    06:00 +2°C° 0 mm 3 mps 740 mmHg 92%
    07:00 +3°C° 0 mm 3 mps 741 mmHg 91%
    08:00 +3°C° 0 mm 3 mps 741 mmHg 90%
    09:00 +3°C° 0 mm 3 mps 741 mmHg 89%
    10:00 +4°C° 0 mm 4 mps 741 mmHg 85%
    11:00 +5°C° 0 mm 4 mps 740 mmHg 81%
    12:00 +6°C° 0 mm 4 mps 740 mmHg 77%
    13:00 +6°C° 0 mm 5 mps 739 mmHg 77%
    14:00 +6°C° 0 mm 5 mps 738 mmHg 76%
    15:00 +6°C° 0 mm 5 mps 738 mmHg 76%
    16:00 +5°C° 0 mm 6 mps 737 mmHg 78%
    17:00 +5°C° 0 mm 6 mps 737 mmHg 79%
    18:00 +5°C° 0 mm 6 mps 736 mmHg 81%
    19:00 +5°C° 0 mm 6 mps 735 mmHg 82%
    20:00 +5°C° 0 mm 6 mps 735 mmHg 84%
    21:00 +6°C° 0 mm 5 mps 734 mmHg 85%
    22:00 +6°C° 0 mm 5 mps 734 mmHg 86%
    23:00 +6°C° 0 mm 5 mps 733 mmHg 86%
    Show more